Flag for U.S.A. Weather past 2 weeks in Glennallen, Alaska, U.S.A.

Now
56 °F

Sunny.


Feels Like: 56 °F
Forecast: 44 / 67 °F
Wind: No wind

Location: Gulkana Airport

Current Time: Aug 22, 2014 at 12:24:07 PM

Latest Report: Aug 22, 2014 at 11:53 AM


Visibility: 10 mi

Pressure: 30.22 "Hg

Humidity: 70%

Dew point: 46 °F

Location of GlennallenLocation

Historic Weather in Glennallen — Graph

°F

Glennallen temperature yesterday

Maximum temperature yesterday: 70 °F (at 3:53 PM)
Minimum temperature yesterday: 39 °F (at 6:53 AM)
Average temperature yesterday: 55 °F

Past Weeks' High & Low Weather Summary

 TemperatureHumidityPressure
High73 °F (Aug 10, 6:53 PM)100% (Aug 14, 3:53 AM)30.23 "Hg (Aug 14, 3:53 AM)
Low34 °F (Aug 22, 6:01 AM)37% (Aug 10, 6:53 PM)29.61 "Hg (Aug 17, 1:53 PM)
Average55 °F71%29.83 "Hg
* Reported Aug 7 10:53 AM — Aug 22 10:53 AM, Glennallen, Weather by CustomWeather, © 2014

Note: Actual official high and low records may vary slightly from our data, if they occured in-between our weather recording intervals... More about our weather records

Advertising

Glennallen weather history for previous 24 hours

 ConditionsComfort  
Time TempWeatherWind HumidityBarometerVisibility
10:53 AM
Aug 22
53 °FSunny.3 mph77%30.23 "Hg10 mi
9:53 AM51 °FSunny.No wind77%30.22 "Hg10 mi
8:53 AM45 °FPassing clouds.No wind93%30.23 "Hg10 mi
7:53 AM41 °FSunny.No wind96%30.22 "Hg10 mi
6:01 AM34 °FFog.5 mph97%30.21 "Hg1 mi
4:46 AM35 °FFog.No wind96%30.21 "Hg1 mi
3:53 AM37 °FClear.No wind93%30.22 "Hg10 mi
1:53 AM41 °FClear.No wind93%30.21 "Hg10 mi
11:53 PM
Aug 21
45 °FClear.6 mph90%30.19 "Hg10 mi
10:53 PM49 °FClear.No wind84%30.19 "Hg10 mi
9:53 PM57 °FSunny.No wind67%30.17 "Hg10 mi
8:53 PM61 °FSunny.8 mph58%30.15 "Hg10 mi
7:53 PM65 °FSunny.3 mph49%30.14 "Hg10 mi
6:53 PM68 °FPassing clouds.7 mph44%30.14 "Hg10 mi
4:53 PM69 °FSunny.5 mph42%30.16 "Hg10 mi
3:53 PM70 °FSunny.5 mph39%30.17 "Hg10 mi
1:53 PM67 °FSunny.No wind47%30.20 "Hg10 mi
12:53 PM64 °FSunny.No wind54%30.21 "Hg10 mi
Weather by CustomWeather, © 2014

See weather overviewHow to use our weather pages